Location: Castillon
(43.1358°N, 0.8654°E)
Time: 03:26:54
(UTC+00:00)

Daily predictions for brighter satellites

Satellite Brightness Start Highest point End
(mag) Time Altitude Azimuth Time Altitude Azimuth Time Altitude Azimuth
Cosmos 2237 Rocket 4.2 03:34:18 19° N 03:34:18 19° N 03:35:56 10° NNE
USA 215 4.1 03:33:37 10° NE 03:38:28 40° N 03:38:28 40° N
ATLAS CENTAUR R/B 4.0 03:49:21 18° NNE 03:49:21 18° NNE 03:50:32 10° NNE
USA 229 4.5 03:59:14 42° S 03:59:14 42° S 04:04:08 10° SSE
Cosmos 1943 Rocket 3.5 03:55:25 20° N 03:58:42 37° ENE 04:03:46 10° SE
NOSS 3-1 (A) 4.0 04:01:46 59° NW 04:03:35 86° WSW 04:12:18 10° SSE
H-2A R/B 4.3 04:00:52 10° NNE 04:04:49 32° E 04:06:15 26° SE
USA 267 3.9 04:06:19 10° SSE 04:10:41 39° S 04:10:41 39° S
SL-16 R/B 2.7 04:15:01 49° N 04:15:01 49° N 04:19:18 10° NNE
Cosmos 1842 Rocket 4.3 04:21:59 44° SE 04:22:54 52° E 04:27:17 10° NNE
Cosmos 2369 Rocket 3.1 04:21:27 10° NNW 04:27:02 49° ENE 04:32:32 10° SE
Cosmos 1603 4.5 04:25:30 15° S 04:30:05 50° ESE 04:35:35 10° NE
CZ-4C R/B 3.8 04:34:38 21° NNW 04:34:38 21° NNW 04:38:57 10° NNE
Cosmos 2251 Rocket 4.1 04:36:06 41° NNW 04:36:06 41° NNW 04:40:02 10° N
Cosmos 1943 4.3 04:29:57 10° S 04:35:10 42° ESE 04:40:26 10° NE
IDEFIX/ARIANE 42P 4.5 04:32:43 10° N 04:34:08 17° NNW 04:34:08 17° NNW
Lacrosse 5 2.0 04:36:01 51° NNW 04:37:10 68° NE 04:42:13 10° SE
COSMO-SKYMED 1 3.8 04:36:58 10° SE 04:41:02 41° ENE 04:45:07 10° N
Cosmos 2221 2.7 04:42:17 20° S 04:45:10 69° E 04:49:27 10° NNE
CZ-2C R/B 2.6 04:45:04 10° N 04:50:06 52° WNW 04:50:10 52° WNW
Meteor 2-3 Rocket 3.6 04:44:47 10° NNW 04:50:34 83° W 04:56:22 10° S
ALOS 2.9 04:53:23 10° NNE 04:58:00 55° E 05:02:33 10° S
Cosmos 1484 Rocket 2.8 04:54:06 10° NNE 04:58:05 83° ESE 05:01:51 11° S
Cosmos 1605 Rocket 4.1 04:58:25 10° NNW 05:04:19 46° W 05:10:07 10° SSW
STARLINK-1104 4.3 05:02:57 27° SSW 05:04:47 48° SE 05:08:42 10° ENE
STARLINK-1144 4.2 05:07:31 26° SSW 05:09:32 52° SE 05:13:29 10° ENE
Cosmos 1238 4.2 05:07:17 10° S 05:10:19 74° E 05:13:23 10° N
GEOS 3 Rocket 3.7 05:06:08 10° NNE 05:11:23 64° NW 05:14:28 25° WSW
STARLINK-1103 4.0 05:12:07 25° SSW 05:14:17 57° SE 05:18:17 10° ENE
Cosmos 2237 Rocket 4.2 05:16:08 11° NW 05:16:08 11° NW 05:17:12 10° NNW
PSLV R/B 3.6 05:12:01 10° NNE 05:15:47 86° ESE 05:19:35 10° SSW
STARLINK-1128 3.9 05:14:21 25° SSW 05:16:30 62° SE 05:20:29 10° ENE
Cosmos 407 Rocket 3.4 05:12:00 10° SSW 05:17:19 77° WNW 05:22:39 10° NNE
Meteor 1-27 4.2 05:12:46 10° SSW 05:18:13 57° WNW 05:23:42 10° N
Cosmos 1140 Rocket 3.6 05:13:20 10° SSW 05:18:35 79° ESE 05:23:51 10° NNE
STARLINK-1101 3.9 05:16:40 23° SW 05:19:01 63° SE 05:23:02 10° ENE
Cosmos 1153 Rocket 4.5 05:13:16 10° NNW 05:19:15 55° W 05:25:11 10° SSW
STARLINK-1113 3.8 05:18:39 23° SW 05:20:59 67° SE 05:24:59 10° ENE
Aureole 2 Rocket 1.9 05:20:04 29° NNW 05:21:29 81° WSW 05:24:41 10° SSE
Meteor 2-2 Rocket 4.3 05:15:31 10° SSW 05:21:32 82° W 05:27:36 10° N
CZ-4B R/B 3.0 05:18:34 10° N 05:22:00 38° WNW 05:22:18 37° W
STARLINK-1102 3.8 05:21:14 22° SW 05:23:46 69° SE 05:27:49 10° ENE
STARLINK-1119 3.7 05:23:03 22° SW 05:25:33 73° SE 05:29:34 10° ENE
ATLAS CENTAUR R/B 3.5 05:25:33 14° NW 05:25:36 14° NW 05:28:04 10° N
Meteor 1-31 Rocket 3.7 05:22:50 10° N 05:25:46 28° WNW 05:25:46 28° WNW
METEOR-M 4.0 05:22:31 10° NNE 05:27:53 83° WNW 05:33:13 10° SSW
STARLINK-1111 3.7 05:25:44 20° SW 05:28:27 75° SE 05:32:31 10° ENE
Cosmos 1805 Rocket 3.5 05:24:34 10° N 05:28:56 85° E 05:33:15 10° S
SKYMED 2 3.5 05:24:47 10° S 05:29:03 60° W 05:33:22 10° NNW
STARLINK-1114 3.6 05:27:28 20° SW 05:30:08 79° SE 05:34:10 10° ENE
Cosmos 1727 Rocket 4.2 05:24:51 10° SSW 05:30:43 44° WNW 05:36:37 10° N
Sich 1 3.5 05:26:56 10° N 05:31:13 64° E 05:35:28 10° SSE
STARLINK-1073 3.6 05:30:19 18° SW 05:33:13 82° SE 05:37:18 10° NE
STARLINK-1130 (DARKSAT) 3.5 05:31:49 18° SW 05:34:41 85° SE 05:38:43 10° NE
SOZ 3.7 05:35:01 39° W 05:35:37 63° SW 05:38:06 10° SE
Cosmos 1500 Rocket 4.1 05:32:12 10° NNW 05:36:15 35° W 05:40:15 10° SSW
STARLINK-1121 3.5 05:34:58 17° SW 05:38:04 88° SE 05:42:09 10° NE
STARLINK-1084 3.5 05:36:13 17° SW 05:39:15 89° NNW 05:43:17 10° NE
Cosmos 2173 Rocket 3.9 05:33:13 10° NNW 05:39:28 67° W 05:45:35 10° S
STARLINK-1118 3.0 05:39:19 32° WNW 05:39:47 36° NNW 05:42:10 10° NE
Cosmos 2084 3.5 05:35:39 10° SW 05:40:09 88° SE 05:44:40 10° NE
H-2A R/B 3.6 05:36:30 10° N 05:40:10 26° WNW 05:42:50 15° WSW
Cosmos 1190 Rocket 4.1 05:36:14 10° SW 05:41:23 56° WNW 05:46:38 10° NNE
Cosmos 614 Rocket 4.3 05:36:48 10° SW 05:41:39 42° WNW 05:46:36 10° N
Cosmos 1943 Rocket 2.8 05:37:28 10° NW 05:42:20 33° WSW 05:47:11 10° SSW
STARLINK-1106 3.5 05:39:34 15° SW 05:42:50 85° NW 05:46:56 10° NE
Cosmos 1400 Rocket 3.1 05:42:08 10° S 05:46:08 73° E 05:50:12 10° NNE
Okean O Rocket 1.7 05:42:27 10° NNE 05:46:51 78° ESE 05:51:11 10° S
Cosmos 1869 3.9 05:43:26 10° SW 05:47:07 35° WNW 05:50:47 10° N
STARLINK-1112 3.5 05:44:21 14° WSW 05:47:49 79° NW 05:51:55 10° NE
Cosmos 2100 Rocket 4.2 05:49:02 10° NNW 05:54:55 46° W 06:00:45 10° SSW
Cosmos 1151 Rocket 4.0 05:53:22 10° S 05:57:33 52° E 06:01:46 10° NNE
Shenzhou-11 Module 1.8 05:56:37 16° WSW 05:58:36 67° SSE 06:01:14 10° E
Cosmos 676 Rocket 4.0 05:53:36 10° SSW 05:58:53 66° WNW 06:04:13 10° NNE
SL-16 R/B 4.0 05:56:55 11° WNW 05:58:54 13° NW 06:01:24 10° NNW
Cosmos 1328 Rocket 4.2 05:57:56 10° S 06:02:18 62° E 06:06:43 10° NNE
STARLINK-1070 3.8 06:00:47 15° W 06:02:44 30° NNW 06:05:24 10° NE
FENGYUN 3A 4.1 05:57:47 10° N 06:02:52 41° WNW 06:07:55 10° SW
NOSS 3-3 (A) 4.2 05:57:10 10° SSW 06:02:57 73° ESE 06:09:26 10° NE
NOSS 3-3 (C) 4.2 05:57:16 10° SSW 06:03:03 72° ESE 06:09:33 10° NE
STARLINK-1124 4.0 06:01:29 14° WNW 06:03:22 26° NNW 06:05:54 10° NE
STARLINK-1066 3.8 06:01:39 14° W 06:03:39 29° NNW 06:06:17 10° NE
STARLINK-1081 3.8 06:01:52 14° W 06:03:53 29° NNW 06:06:30 10° NE
STARLINK-1069 3.8 06:02:18 14° W 06:04:20 29° NNW 06:06:58 10° NE
STARLINK-1085 3.8 06:02:32 14° W 06:04:34 29° NNW 06:07:11 10° NE
STARLINK-1086 3.8 06:02:45 14° W 06:04:47 29° NNW 06:07:25 10° NE
STARLINK-1095 3.8 06:02:57 14° W 06:05:01 29° NNW 06:07:38 10° NE
STARLINK-1077 3.8 06:03:11 14° W 06:05:14 29° NNW 06:07:51 10° NE
STARLINK-1075 3.8 06:03:23 14° W 06:05:28 29° NNW 06:08:05 10° NE
STARLINK-1093 3.8 06:03:36 14° W 06:05:41 28° NNW 06:08:18 10° NE
STARLINK-1074 3.8 06:03:49 13° W 06:05:54 28° NNW 06:08:31 10° NE
STARLINK-1087 3.9 06:04:02 13° W 06:06:08 28° NNW 06:08:45 10° NE
STARLINK-1088 3.9 06:04:14 13° W 06:06:20 28° NNW 06:08:56 10° NE
STARLINK-1115 3.9 06:04:28 13° W 06:06:35 28° NNW 06:09:12 10° NE
STARLINK-1076 3.9 06:04:41 13° W 06:06:49 28° NNW 06:09:26 10° NE
STARLINK-1092 3.9 06:04:55 13° W 06:07:03 28° NNW 06:09:39 10° NE
STARLINK-1080 3.9 06:05:06 13° W 06:07:15 28° NNW 06:09:51 10° NE
STARLINK-1090 3.9 06:05:20 13° W 06:07:29 28° NNW 06:10:05 10° NE
STARLINK-1089 3.9 06:05:33 13° W 06:07:44 28° NNW 06:10:19 10° NE
STARLINK-1107 3.9 06:05:45 13° W 06:07:55 28° NNW 06:10:30 10° NE
Cosmos 1238 Rocket 3.8 06:02:10 10° NNW 06:08:01 52° W 06:12:59 10° SSW
STARLINK-1109 3.9 06:05:59 13° W 06:08:10 27° NNW 06:10:46 10° NE
Cosmos 1459 Rocket 4.4 06:02:36 10° NNW 06:08:17 40° W 06:14:02 10° SSW
STARLINK-1091 3.9 06:06:13 12° W 06:08:24 27° NNW 06:11:00 10° NE
STARLINK-1072 3.9 06:06:24 12° W 06:08:37 27° NNW 06:11:12 10° NE
STARLINK-1096 3.9 06:06:37 12° W 06:08:49 27° NNW 06:11:24 10° NE
STARLINK-1079 3.9 06:06:51 12° W 06:09:04 27° NNW 06:11:39 10° NE
STARLINK-1116 3.9 06:07:04 12° W 06:09:18 27° NNW 06:11:53 10° NE
Cosmos 2061 Rocket 4.1 06:03:14 10° NNW 06:09:21 56° W 06:15:22 10° SSW
STARLINK-1094 3.9 06:07:30 12° W 06:09:45 27° NNW 06:12:20 10° NE
STARLINK-1117 3.9 06:07:42 12° W 06:09:58 27° NNW 06:12:33 10° NE
STARLINK-1078 3.9 06:07:55 12° W 06:10:11 27° NNW 06:12:46 10° NE
STARLINK-1108 4.0 06:08:09 12° W 06:10:26 27° NNW 06:12:59 10° NE
H-2A R/B 2.8 06:06:45 10° NNE 06:10:31 80° E 06:14:13 10° S
STARLINK-1071 4.0 06:08:21 12° W 06:10:38 26° NNW 06:13:11 10° NE
Cosmos 2369 Rocket 3.2 06:06:06 10° NW 06:10:43 26° WSW 06:15:18 10° SSW
STARLINK-1110 4.0 06:08:35 12° W 06:10:53 26° NNW 06:13:26 10° NE
STARLINK-1122 4.0 06:09:01 11° W 06:11:20 26° NNW 06:13:54 10° NE
STARLINK-1126 4.0 06:09:13 11° W 06:11:33 26° NNW 06:14:06 10° NE
STARLINK-1082 4.0 06:09:27 11° W 06:11:48 26° NNW 06:14:21 10° NE
USA 116 4.1 06:09:11 10° SSW 06:11:58 27° W 06:14:40 10° NW
STARLINK-1100 4.0 06:09:39 11° W 06:12:00 26° NNW 06:14:33 10° NE
STARLINK-1083 4.0 06:09:52 11° W 06:12:14 26° NNW 06:14:47 10° NE
STARLINK-1125 4.0 06:10:05 11° W 06:12:27 26° NNW 06:15:00 10° NE
Cosmos 921 Rocket 4.0 06:09:24 10° NW 06:13:06 26° W 06:16:43 10° SSW
Cosmos 1633 3.7 06:10:42 10° NW 06:13:37 23° W 06:16:29 10° SW
COSMO-SKYMED 1 3.9 06:14:18 10° SW 06:17:21 19° W 06:20:26 10° NW
NOAA 6 4.2 06:12:53 10° N 06:17:55 52° WNW 06:22:53 10° SW
Helios 1A Rocket 2.9 06:13:50 10° N 06:17:58 71° WNW 06:22:04 10° SSW
Cosmos 1725 Rocket 4.1 06:12:59 10° NNW 06:19:07 60° W 06:25:18 10° S
Cosmos 1943 4.0 06:14:23 10° WSW 06:19:19 31° NW 06:24:19 10° N
Lacrosse 5 3.2 06:15:51 10° WNW 06:19:43 22° WSW 06:23:33 10° S
Cosmos 2123 Rocket 4.1 06:14:36 10° SSW 06:20:47 56° WNW 06:26:59 10° N
Cosmos 1515 Rocket 4.3 06:16:58 10° S 06:21:21 61° E 06:25:44 10° NNE
BREEZE-M DEB (TANK) 3.6 06:17:24 10° WNW 06:22:45 47° NNE 06:26:29 10° E
Cosmos 2221 4.4 06:22:04 10° W 06:23:15 11° WNW 06:24:28 10° NW
Cosmos 1633 Rocket 3.1 06:19:04 10° NNW 06:23:23 59° W 06:27:41 10° S
Cosmos 1862 4.0 06:21:24 10° NNW 06:24:57 32° W 06:28:29 10° SSW
Cosmos 1656 Rocket 4.1 06:19:50 10° NW 06:25:09 42° WSW 06:30:27 10° S
STARLINK-1098 4.0 06:21:17 10° WSW 06:25:10 45° NNW 06:29:05 10° NE
Cosmos 1666 Rocket 3.9 06:21:43 10° NNW 06:25:58 45° W 06:30:09 10° SSW
Cosmos 1933 Rocket 4.4 06:22:14 10° N 06:26:31 56° E 06:30:46 10° SSE
ATLAS 2AS CENTAUR R/B 3.8 06:22:55 10° NNW 06:30:18 48° NE 06:37:04 10° ESE
